When you browse on this site, cookies collect data to enhance your experience and personalize the content and advertising you see.
Visit our Privacy Policy to learn more. By continuing to use the site, you agree to this use of cookies and data.

Hourly Weather Krasnyy Bor

Today, 7 July, Tuesday

Time Temperature Precipitation Wind Pressure Humidity
00:00 +20°C° 0 mm 0 mps 752 mmHg 88%
01:00 +20°C° 0 mm 0 mps 752 mmHg 89%
02:00 +20°C° 0 mm 0 mps 753 mmHg 89%
03:00 +19°C° 0 mm 0 mps 753 mmHg 89%
04:00 +20°C° 0 mm 0 mps 753 mmHg 87%
05:00 +22°C° 0 mm 0 mps 753 mmHg 85%
06:00 +25°C° 0 mm 1 mps 753 mmHg 84%
07:00 +26°C° 0 mm 1 mps 754 mmHg 80%
08:00 +27°C° 0 mm 1 mps 754 mmHg 76%
09:00 +28°C° 0 mm 2 mps 754 mmHg 73%
10:00 +29°C° 0.1 mm 1 mps 754 mmHg 70%
11:00 +29°C° 0.1 mm 1 mps 753 mmHg 67%
12:00 +30°C° 0.1 mm 1 mps 753 mmHg 64%
13:00 +30°C° 0 mm 1 mps 753 mmHg 63%
14:00 +31°C° 0 mm 1 mps 753 mmHg 61%
15:00 +31°C° 0 mm 1 mps 754 mmHg 60%
16:00 +31°C° 0 mm 1 mps 753 mmHg 64%
17:00 +30°C° 0 mm 1 mps 753 mmHg 68%
18:00 +30°C° 0 mm 1 mps 753 mmHg 73%
19:00 +28°C° 0 mm 2 mps 754 mmHg 75%
20:00 +26°C° 0 mm 2 mps 754 mmHg 77%
21:00 +25°C° 0 mm 2 mps 754 mmHg 79%
22:00 +24°C° 0 mm 2 mps 754 mmHg 81%
23:00 +24°C° 0 mm 2 mps 754 mmHg 83%

Tomorrow, 8 July, Wednesday

Time Temperature Precipitation Wind Pressure Humidity
00:00 +23°C° 0 mm 2 mps 754 mmHg 85%
01:00 +23°C° 0 mm 2 mps 754 mmHg 86%
02:00 +23°C° 0 mm 2 mps 755 mmHg 87%
03:00 +22°C° 0 mm 1 mps 755 mmHg 88%
04:00 +23°C° 0 mm 2 mps 755 mmHg 87%
05:00 +24°C° 0 mm 2 mps 755 mmHg 85%
06:00 +25°C° 0 mm 2 mps 755 mmHg 83%
07:00 +27°C° 0 mm 2 mps 755 mmHg 80%
08:00 +28°C° 0 mm 2 mps 755 mmHg 77%
09:00 +29°C° 0 mm 3 mps 755 mmHg 73%
10:00 +30°C° 0.1 mm 3 mps 755 mmHg 72%
11:00 +31°C° 0.1 mm 3 mps 755 mmHg 70%
12:00 +32°C° 0.1 mm 4 mps 755 mmHg 68%
13:00 +32°C° 0.1 mm 4 mps 755 mmHg 68%
14:00 +32°C° 0.1 mm 4 mps 755 mmHg 68%
15:00 +32°C° 0.1 mm 4 mps 755 mmHg 68%
16:00 +31°C° 0 mm 3 mps 755 mmHg 71%
17:00 +30°C° 0 mm 3 mps 755 mmHg 75%
18:00 +29°C° 0 mm 3 mps 755 mmHg 79%
19:00 +28°C° 0 mm 3 mps 755 mmHg 82%
20:00 +26°C° 0 mm 3 mps 755 mmHg 86%
21:00 +25°C° 0 mm 3 mps 755 mmHg 90%
22:00 +24°C° 0 mm 3 mps 755 mmHg 90%
23:00 +24°C° 0 mm 2 mps 755 mmHg 91%

Day after tomorrow, 9 July, Thursday

Time Temperature Precipitation Wind Pressure Humidity
00:00 +23°C° 0 mm 2 mps 755 mmHg 92%
01:00 +23°C° 0 mm 2 mps 755 mmHg 91%
02:00 +23°C° 0 mm 2 mps 755 mmHg 91%
03:00 +21°C° 0 mm 3 mps 755 mmHg 90%
04:00 +22°C° 0 mm 3 mps 755 mmHg 88%
05:00 +24°C° 0 mm 3 mps 755 mmHg 86%
06:00 +25°C° 0 mm 3 mps 755 mmHg 83%
07:00 +26°C° 0.1 mm 3 mps 755 mmHg 80%
08:00 +27°C° 0.1 mm 3 mps 755 mmHg 77%
09:00 +29°C° 0.1 mm 3 mps 755 mmHg 74%
10:00 +29°C° 0 mm 4 mps 755 mmHg 71%
11:00 +30°C° 0 mm 4 mps 755 mmHg 68%
12:00 +32°C° 0 mm 4 mps 755 mmHg 65%
13:00 +32°C° 0 mm 4 mps 754 mmHg 65%
14:00 +32°C° 0 mm 4 mps 754 mmHg 65%
15:00 +32°C° 0 mm 5 mps 754 mmHg 64%
16:00 +30°C° 0.1 mm 4 mps 754 mmHg 68%
17:00 +29°C° 0.1 mm 4 mps 753 mmHg 73%
18:00 +29°C° 0.1 mm 3 mps 753 mmHg 77%
19:00 +27°C° 0 mm 3 mps 753 mmHg 79%
20:00 +26°C° 0 mm 3 mps 753 mmHg 81%
21:00 +24°C° 0 mm 3 mps 753 mmHg 83%
22:00 +24°C° 0 mm 3 mps 753 mmHg 82%
23:00 +22°C° 0 mm 3 mps 753 mmHg 82%

10 July, Friday

Time Temperature Precipitation Wind Pressure Humidity
00:00 +22°C° 0 mm 3 mps 753 mmHg 82%
01:00 +22°C° 0 mm 3 mps 753 mmHg 82%
02:00 +21°C° 0 mm 3 mps 753 mmHg 81%
03:00 +21°C° 0 mm 3 mps 753 mmHg 81%
04:00 +22°C° 0 mm 3 mps 753 mmHg 81%
05:00 +22°C° 0 mm 4 mps 753 mmHg 80%
06:00 +23°C° 0 mm 4 mps 752 mmHg 80%
07:00 +25°C° 0 mm 5 mps 752 mmHg 78%
08:00 +27°C° 0 mm 5 mps 752 mmHg 75%
09:00 +28°C° 0 mm 5 mps 752 mmHg 73%
10:00 +28°C° 0 mm 5 mps 752 mmHg 72%
11:00 +28°C° 0 mm 5 mps 752 mmHg 71%
12:00 +29°C° 0 mm 5 mps 752 mmHg 70%
13:00 +28°C° 0.6 mm 4 mps 752 mmHg 72%
14:00 +28°C° 0.6 mm 4 mps 752 mmHg 74%
15:00 +27°C° 0.6 mm 4 mps 752 mmHg 77%
16:00 +26°C° 0.5 mm 3 mps 753 mmHg 81%
17:00 +25°C° 0.5 mm 3 mps 753 mmHg 85%
18:00 +24°C° 0.5 mm 2 mps 753 mmHg 89%
19:00 +22°C° 0.2 mm 3 mps 753 mmHg 90%
20:00 +21°C° 0.2 mm 3 mps 754 mmHg 91%
21:00 +20°C° 0.2 mm 4 mps 754 mmHg 92%
22:00 +19°C° 0.1 mm 3 mps 754 mmHg 93%
23:00 +18°C° 0.1 mm 2 mps 755 mmHg 93%

11 July, Saturday

Time Temperature Precipitation Wind Pressure Humidity
00:00 +17°C° 0.1 mm 2 mps 755 mmHg 94%
01:00 +17°C° 0 mm 2 mps 755 mmHg 95%
02:00 +17°C° 0 mm 2 mps 755 mmHg 95%
03:00 +16°C° 0 mm 2 mps 756 mmHg 96%
04:00 +17°C° 0 mm 3 mps 756 mmHg 93%
05:00 +17°C° 0 mm 3 mps 756 mmHg 91%
06:00 +18°C° 0 mm 4 mps 757 mmHg 89%
07:00 +19°C° 0 mm 4 mps 757 mmHg 84%
08:00 +20°C° 0 mm 4 mps 757 mmHg 78%
09:00 +22°C° 0 mm 4 mps 757 mmHg 72%
10:00 +22°C° 0 mm 5 mps 757 mmHg 69%
11:00 +23°C° 0 mm 5 mps 757 mmHg 65%
12:00 +25°C° 0 mm 5 mps 757 mmHg 62%
13:00 +25°C° 0 mm 5 mps 757 mmHg 62%
14:00 +25°C° 0 mm 5 mps 757 mmHg 62%
15:00 +25°C° 0 mm 5 mps 757 mmHg 63%
16:00 +23°C° 0 mm 5 mps 757 mmHg 67%
17:00 +22°C° 0 mm 4 mps 757 mmHg 72%
18:00 +21°C° 0 mm 4 mps 757 mmHg 76%
19:00 +20°C° 0 mm 3 mps 757 mmHg 76%
20:00 +18°C° 0 mm 3 mps 757 mmHg 76%
21:00 +17°C° 0 mm 3 mps 758 mmHg 76%
22:00 +16°C° 0 mm 3 mps 758 mmHg 76%
23:00 +14°C° 0 mm 3 mps 758 mmHg 75%

12 July, Sunday

Time Temperature Precipitation Wind Pressure Humidity
00:00 +15°C° 0 mm 2 mps 758 mmHg 75%
01:00 +14°C° 0 mm 2 mps 758 mmHg 77%
02:00 +14°C° 0 mm 2 mps 758 mmHg 78%
03:00 +13°C° 0 mm 2 mps 758 mmHg 80%
04:00 +14°C° 0 mm 2 mps 758 mmHg 79%
05:00 +15°C° 0 mm 2 mps 758 mmHg 77%
06:00 +16°C° 0 mm 2 mps 758 mmHg 76%
07:00 +18°C° 0 mm 3 mps 758 mmHg 73%
08:00 +20°C° 0 mm 3 mps 758 mmHg 70%
09:00 +21°C° 0 mm 3 mps 758 mmHg 68%
10:00 +22°C° 0 mm 3 mps 757 mmHg 65%
11:00 +24°C° 0 mm 3 mps 757 mmHg 62%
12:00 +25°C° 0 mm 4 mps 757 mmHg 59%
13:00 +25°C° 0 mm 4 mps 757 mmHg 59%
14:00 +25°C° 0 mm 4 mps 757 mmHg 59%
15:00 +25°C° 0 mm 4 mps 756 mmHg 59%
16:00 +23°C° 0 mm 4 mps 756 mmHg 63%
17:00 +22°C° 0 mm 3 mps 756 mmHg 67%
18:00 +22°C° 0 mm 3 mps 755 mmHg 71%
19:00 +20°C° 0 mm 3 mps 755 mmHg 73%
20:00 +19°C° 0 mm 2 mps 755 mmHg 74%
21:00 +17°C° 0 mm 2 mps 755 mmHg 76%
22:00 +16°C° 0 mm 2 mps 755 mmHg 77%
23:00 +16°C° 0 mm 1 mps 755 mmHg 79%
Show more